{"data":{"norad_id":62152,"epoch":"2026-09-21T08:07:23.733696Z","epoch_age_seconds":109252,"freshness":"FRESH","line1":"1 62152U 24224P   26264.33846914  .00007192  00000+0  27063-3 0  9997","line2":"2 62152  42.9995 136.4961 0001470 270.6834  89.3849 15.27577293102303","mean_motion":15.27577293,"eccentricity":0.000147,"inclination_deg":42.9995,"raan_deg":136.4961,"arg_perigee_deg":270.6834,"mean_anomaly_deg":89.3849,"bstar":0.00027063,"rev_number":10230,"period_min":94.26691576254,"perigee_km":482.0486062358,"apogee_km":484.06579733112,"semimajor_km":6861.1942017835,"source":"CELESTRAK","updated_at":"2026-09-22T09:00:49.531993Z"}}